Location: *
(55.5817°S, 142.4781°W)
Time: 11:57:14
(UTC+00:00)

Meteor 2-5 Rocket - Pass Details

Date: 29 April 2025
Orbit: 832 x 911 km, 81.2° (Epoch: 15 December)

Event Time Altitude Azimuth Distance (km) Brightness Sun altitude
Rises 13:35:18 0° 194° (SSW) 3,516 6.9 -27.7°
Reaches altitude 10° 13:37:50 10° 190° (S) 2,560 6.2 -27.4°
Maximum altitude 13:43:35 58° 110° (ESE) 1,011 4.3 -26.6°
Drops below altitude 10° 13:49:08 10° 31° (NNE) 2,483 6.3 -25.8°
Sets 13:51:34 0° 26° (NNE) 3,402 7.0 -25.5°
